Terug naar catalogus

ATLAS 5 CENTAUR DEB

ActiefHEO
NORAD 44691·DEBRIS·🇺🇸 United States

Gelanceerd Oct 17, 2018 vanaf Cape Canaveral Space Force Station

Loading…

Volgende Passages (komende 24 uur)

TLE

VerouderendSource: Space-Track

Epoch: Aug 30, 2026, 18:34 UTC

1 44691U 18079BD  26242.77369456 -.00000122  00000-0  00000-0 0  9998
2 44691  13.2871  50.1227 4444394 279.3567  34.5531  1.76822986 45500

Volg ATLAS 5 CENTAUR DEB in realtime met AllMySat

Download on the App Store